GFSNW_prec_pwat_237.txt.gz
Precipitable_Water
0.42 0.42 0.43 0.44 0.45 0.42 0.37 0.31 0.21 0.37 0.34 0.28 0.23 0.18 0.20 0.21 0.21 0.23 0.22 0.21 0.19 0.18 0.19 0.18 0.18 0.18 0.19 0.26 0.26 0.24 0.30 0.24 0.18 0.23 0.30 0.30 0.37 0.35 0.36 0.28 0.26 0.30 0.28 0.26
0.41 0.41 0.43 0.44 0.45 0.41 0.38 0.32 0.29 0.37 0.34 0.20 0.19 0.19 0.19 0.20 0.20 0.21 0.21 0.19 0.21 0.21 0.20 0.17 0.18 0.20 0.25 0.25 0.24 0.26 0.26 0.26 0.17 0.18 0.22 0.27 0.26 0.31 0.32 0.34 0.34 0.27 0.26 0.30
0.43 0.41 0.42 0.43 0.44 0.41 0.39 0.32 0.19 0.25 0.32 0.27 0.23 0.21 0.18 0.18 0.22 0.21 0.23 0.21 0.23 0.22 0.21 0.22 0.18 0.20 0.24 0.24 0.24 0.24 0.31 0.24 0.20 0.16 0.20 0.23 0.19 0.21 0.28 0.29 0.23 0.25 0.29 0.31
0.43 0.44 0.44 0.44 0.45 0.43 0.39 0.32 0.22 0.27 0.20 0.22 0.24 0.23 0.21 0.18 0.18 0.24 0.25 0.22 0.22 0.21 0.20 0.19 0.18 0.21 0.21 0.23 0.25 0.26 0.28 0.17 0.19 0.19 0.19 0.19 0.18 0.17 0.18 0.19 0.22 0.21 0.23 0.25
0.43 0.43 0.45 0.46 0.46 0.45 0.39 0.25 0.27 0.27 0.25 0.24 0.23 0.24 0.18 0.19 0.19 0.21 0.20 0.21 0.23 0.24 0.21 0.20 0.20 0.21 0.21 0.21 0.23 0.23 0.28 0.18 0.17 0.13 0.16 0.16 0.14 0.15 0.16 0.16 0.16 0.19 0.18 0.21
0.46 0.44 0.43 0.46 0.47 0.46 0.41 0.40 0.36 0.30 0.28 0.24 0.22 0.23 0.23 0.21 0.23 0.23 0.24 0.24 0.23 0.22 0.23 0.28 0.25 0.25 0.25 0.24 0.22 0.21 0.21 0.21 0.18 0.13 0.17 0.16 0.12 0.15 0.16 0.15 0.15 0.15 0.13 0.15
0.46 0.46 0.45 0.46 0.48 0.47 0.48 0.41 0.39 0.32 0.22 0.25 0.23 0.23 0.22 0.21 0.22 0.21 0.24 0.25 0.23 0.25 0.32 0.30 0.26 0.23 0.21 0.20 0.19 0.22 0.20 0.20 0.21 0.16 0.17 0.11 0.18 0.20 0.19 0.16 0.15 0.16 0.15 0.13
0.46 0.46 0.47 0.46 0.47 0.50 0.47 0.48 0.41 0.36 0.25 0.26 0.25 0.24 0.23 0.24 0.25 0.23 0.24 0.26 0.28 0.30 0.25 0.22 0.18 0.17 0.19 0.17 0.16 0.21 0.24 0.22 0.19 0.15 0.15 0.17 0.18 0.21 0.18 0.17 0.16 0.20 0.19 0.18
0.45 0.44 0.46 0.48 0.47 0.48 0.48 0.48 0.47 0.41 0.29 0.26 0.29 0.26 0.26 0.24 0.24 0.25 0.26 0.31 0.33 0.30 0.25 0.19 0.14 0.12 0.14 0.13 0.14 0.21 0.20 0.24 0.22 0.18 0.15 0.12 0.18 0.22 0.24 0.21 0.15 0.23 0.22 0.22
0.42 0.43 0.43 0.46 0.47 0.48 0.46 0.47 0.52 0.44 0.32 0.32 0.31 0.27 0.25 0.28 0.25 0.23 0.25 0.28 0.27 0.31 0.24 0.18 0.16 0.15 0.18 0.13 0.13 0.15 0.18 0.19 0.17 0.17 0.16 0.18 0.22 0.24 0.25 0.16 0.18 0.30 0.31 0.31
0.39 0.37 0.41 0.43 0.45 0.46 0.45 0.43 0.54 0.45 0.35 0.35 0.34 0.33 0.27 0.28 0.26 0.22 0.26 0.25 0.25 0.25 0.20 0.19 0.18 0.17 0.18 0.17 0.18 0.16 0.15 0.14 0.16 0.21 0.17 0.14 0.27 0.26 0.23 0.28 0.30 0.29 0.30 0.30
0.40 0.38 0.38 0.40 0.41 0.42 0.44 0.36 0.46 0.50 0.40 0.35 0.42 0.39 0.38 0.34 0.32 0.27 0.28 0.24 0.26 0.27 0.23 0.24 0.24 0.19 0.22 0.20 0.15 0.21 0.15 0.17 0.15 0.17 0.19 0.27 0.25 0.23 0.26 0.30 0.32 0.33 0.34 0.36
0.40 0.40 0.38 0.38 0.38 0.39 0.40 0.37 0.43 0.42 0.35 0.33 0.33 0.30 0.36 0.39 0.36 0.38 0.27 0.30 0.31 0.29 0.32 0.28 0.24 0.18 0.20 0.15 0.16 0.17 0.20 0.22 0.20 0.19 0.20 0.22 0.24 0.28 0.30 0.32 0.35 0.38 0.39 0.39
0.40 0.39 0.39 0.39 0.39 0.39 0.38 0.34 0.40 0.38 0.33 0.26 0.27 0.34 0.30 0.34 0.34 0.36 0.37 0.34 0.35 0.35 0.33 0.28 0.25 0.20 0.24 0.19 0.20 0.19 0.22 0.24 0.21 0.20 0.21 0.25 0.29 0.32 0.35 0.34 0.36 0.38 0.41 0.42
0.40 0.41 0.42 0.42 0.41 0.42 0.42 0.43 0.44 0.43 0.32 0.28 0.30 0.34 0.35 0.35 0.34 0.31 0.35 0.34 0.31 0.29 0.27 0.25 0.22 0.24 0.24 0.25 0.24 0.20 0.25 0.24 0.22 0.19 0.26 0.28 0.28 0.32 0.34 0.34 0.36 0.41 0.43 0.42
0.42 0.43 0.43 0.43 0.43 0.45 0.43 0.35 0.47 0.50 0.48 0.33 0.25 0.37 0.30 0.33 0.33 0.32 0.31 0.31 0.31 0.32 0.28 0.24 0.25 0.29 0.27 0.21 0.17 0.22 0.26 0.28 0.30 0.27 0.30 0.30 0.31 0.33 0.37 0.39 0.42 0.41 0.38 0.37
0.42 0.42 0.42 0.43 0.45 0.44 0.36 0.33 0.45 0.51 0.51 0.32 0.26 0.26 0.33 0.35 0.37 0.35 0.34 0.34 0.33 0.31 0.28 0.25 0.25 0.25 0.30 0.24 0.18 0.19 0.26 0.28 0.30 0.34 0.34 0.32 0.37 0.37 0.40 0.38 0.38 0.39 0.38 0.38
0.39 0.39 0.39 0.40 0.41 0.40 0.36 0.45 0.48 0.50 0.40 0.36 0.24 0.23 0.27 0.34 0.29 0.26 0.33 0.29 0.30 0.28 0.27 0.27 0.24 0.27 0.28 0.20 0.21 0.26 0.28 0.33 0.35 0.35 0.36 0.35 0.34 0.33 0.35 0.37 0.37 0.35 0.35 0.37
0.38 0.39 0.40 0.39 0.37 0.33 0.35 0.41 0.49 0.49 0.40 0.28 0.26 0.21 0.22 0.35 0.29 0.30 0.32 0.32 0.23 0.30 0.24 0.24 0.27 0.24 0.21 0.23 0.27 0.29 0.33 0.29 0.28 0.29 0.29 0.28 0.28 0.31 0.34 0.36 0.36 0.35 0.37 0.40
0.41 0.38 0.33 0.27 0.35 0.46 0.42 0.38 0.36 0.35 0.35 0.33 0.24 0.26 0.22 0.29 0.31 0.31 0.31 0.32 0.25 0.23 0.27 0.31 0.27 0.22 0.27 0.28 0.30 0.33 0.31 0.31 0.31 0.25 0.21 0.25 0.28 0.31 0.34 0.36 0.37 0.39 0.41 0.44
0.37 0.32 0.30 0.40 0.43 0.39 0.37 0.30 0.26 0.26 0.24 0.26 0.25 0.25 0.23 0.30 0.24 0.25 0.28 0.26 0.26 0.20 0.23 0.25 0.22 0.21 0.28 0.33 0.33 0.34 0.34 0.33 0.32 0.31 0.29 0.31 0.32 0.34 0.35 0.36 0.39 0.42 0.45 0.46
0.38 0.37 0.40 0.41 0.36 0.32 0.27 0.24 0.27 0.25 0.21 0.27 0.25 0.28 0.28 0.30 0.32 0.26 0.27 0.23 0.23 0.17 0.31 0.25 0.19 0.25 0.29 0.32 0.32 0.32 0.33 0.33 0.32 0.33 0.30 0.31 0.34 0.37 0.38 0.38 0.40 0.44 0.48 0.49
0.39 0.34 0.31 0.30 0.29 0.23 0.20 0.19 0.23 0.23 0.26 0.30 0.30 0.27 0.30 0.32 0.31 0.27 0.26 0.22 0.19 0.28 0.24 0.20 0.21 0.30 0.33 0.33 0.33 0.33 0.35 0.35 0.33 0.32 0.31 0.34 0.34 0.39 0.40 0.39 0.43 0.47 0.48 0.50
0.31 0.27 0.23 0.23 0.21 0.21 0.21 0.21 0.24 0.33 0.35 0.34 0.32 0.31 0.30 0.32 0.28 0.27 0.22 0.25 0.27 0.20 0.18 0.17 0.29 0.34 0.36 0.37 0.37 0.35 0.33 0.32 0.30 0.31 0.31 0.33 0.34 0.37 0.42 0.43 0.45 0.47 0.47 0.49
0.28 0.26 0.20 0.20 0.22 0.24 0.26 0.28 0.32 0.35 0.37 0.34 0.32 0.32 0.32 0.29 0.27 0.27 0.24 0.23 0.19 0.19 0.17 0.27 0.35 0.36 0.36 0.36 0.36 0.36 0.34 0.33 0.31 0.30 0.32 0.32 0.36 0.38 0.40 0.44 0.46 0.48 0.48 0.48
0.30 0.26 0.22 0.23 0.22 0.22 0.24 0.26 0.27 0.34 0.33 0.33 0.31 0.26 0.25 0.23 0.22 0.20 0.18 0.16 0.15 0.19 0.31 0.35 0.36 0.34 0.33 0.33 0.35 0.35 0.35 0.34 0.33 0.30 0.32 0.32 0.35 0.38 0.40 0.45 0.46 0.47 0.48 0.48
0.25 0.24 0.27 0.26 0.25 0.26 0.27 0.26 0.28 0.33 0.28 0.23 0.24 0.21 0.19 0.23 0.21 0.18 0.20 0.20 0.26 0.33 0.33 0.34 0.33 0.31 0.31 0.32 0.35 0.37 0.36 0.34 0.33 0.31 0.32 0.33 0.35 0.38 0.40 0.40 0.45 0.47 0.48 0.48

GFSNW_prec_pwat_240.txt.gz
Precipitable_Water
0.42 0.42 0.41 0.40 0.39 0.38 0.35 0.36 0.28 0.46 0.32 0.33 0.24 0.18 0.22 0.22 0.19 0.21 0.22 0.21 0.21 0.18 0.18 0.19 0.17 0.17 0.25 0.23 0.21 0.21 0.23 0.24 0.21 0.22 0.31 0.39 0.37 0.33 0.33 0.27 0.27 0.33 0.32 0.27
0.42 0.42 0.41 0.41 0.40 0.39 0.41 0.35 0.34 0.47 0.34 0.23 0.21 0.22 0.21 0.19 0.18 0.20 0.20 0.20 0.22 0.21 0.21 0.18 0.21 0.18 0.29 0.25 0.20 0.20 0.20 0.21 0.18 0.19 0.29 0.31 0.28 0.33 0.31 0.32 0.31 0.26 0.25 0.28
0.42 0.42 0.41 0.41 0.41 0.39 0.38 0.36 0.19 0.30 0.35 0.35 0.26 0.25 0.22 0.19 0.22 0.20 0.21 0.21 0.23 0.22 0.23 0.21 0.18 0.18 0.24 0.24 0.24 0.22 0.28 0.21 0.18 0.17 0.20 0.23 0.19 0.22 0.31 0.29 0.21 0.23 0.25 0.28
0.43 0.42 0.41 0.41 0.42 0.40 0.38 0.36 0.21 0.34 0.22 0.22 0.27 0.26 0.24 0.20 0.19 0.24 0.23 0.22 0.22 0.21 0.20 0.20 0.22 0.23 0.25 0.23 0.27 0.26 0.31 0.19 0.19 0.19 0.20 0.18 0.16 0.16 0.18 0.19 0.22 0.21 0.23 0.25
0.45 0.43 0.42 0.41 0.42 0.41 0.35 0.26 0.25 0.31 0.24 0.31 0.25 0.26 0.22 0.19 0.21 0.21 0.21 0.20 0.23 0.25 0.23 0.22 0.19 0.22 0.21 0.19 0.22 0.24 0.25 0.18 0.19 0.14 0.17 0.16 0.15 0.17 0.18 0.17 0.18 0.19 0.19 0.20
0.48 0.44 0.42 0.42 0.42 0.41 0.35 0.43 0.39 0.30 0.31 0.28 0.26 0.27 0.28 0.26 0.24 0.25 0.24 0.23 0.22 0.21 0.24 0.26 0.26 0.25 0.23 0.22 0.21 0.19 0.21 0.20 0.18 0.14 0.18 0.17 0.11 0.15 0.16 0.16 0.18 0.18 0.16 0.17
0.47 0.47 0.44 0.42 0.42 0.41 0.48 0.38 0.37 0.32 0.24 0.27 0.27 0.28 0.26 0.23 0.24 0.23 0.25 0.26 0.22 0.26 0.31 0.28 0.26 0.24 0.21 0.21 0.20 0.21 0.17 0.18 0.19 0.15 0.17 0.10 0.20 0.24 0.20 0.17 0.15 0.17 0.17 0.17
0.47 0.48 0.47 0.43 0.43 0.44 0.45 0.45 0.38 0.34 0.25 0.28 0.28 0.28 0.27 0.27 0.27 0.26 0.26 0.28 0.31 0.32 0.26 0.20 0.19 0.17 0.21 0.19 0.18 0.19 0.24 0.20 0.18 0.16 0.15 0.16 0.17 0.22 0.23 0.17 0.15 0.25 0.24 0.22
0.47 0.47 0.49 0.46 0.43 0.44 0.45 0.46 0.46 0.40 0.28 0.23 0.29 0.29 0.30 0.26 0.27 0.28 0.29 0.33 0.35 0.30 0.25 0.21 0.14 0.13 0.15 0.15 0.17 0.20 0.21 0.20 0.20 0.21 0.15 0.13 0.21 0.27 0.27 0.24 0.15 0.30 0.33 0.30
0.45 0.46 0.47 0.48 0.47 0.44 0.43 0.46 0.51 0.39 0.29 0.29 0.32 0.28 0.29 0.33 0.29 0.26 0.29 0.29 0.32 0.33 0.23 0.19 0.17 0.16 0.20 0.14 0.13 0.15 0.19 0.20 0.17 0.16 0.15 0.17 0.20 0.29 0.29 0.15 0.20 0.30 0.30 0.31
0.43 0.45 0.46 0.47 0.47 0.45 0.43 0.41 0.53 0.43 0.33 0.33 0.36 0.36 0.31 0.30 0.30 0.26 0.31 0.29 0.27 0.27 0.21 0.20 0.19 0.18 0.21 0.18 0.19 0.17 0.18 0.18 0.17 0.17 0.16 0.15 0.32 0.29 0.23 0.25 0.27 0.29 0.32 0.32
0.42 0.42 0.43 0.45 0.46 0.46 0.43 0.36 0.49 0.52 0.39 0.34 0.40 0.41 0.41 0.38 0.36 0.33 0.32 0.28 0.30 0.31 0.24 0.25 0.25 0.21 0.24 0.20 0.14 0.21 0.16 0.20 0.19 0.22 0.18 0.24 0.25 0.24 0.26 0.28 0.28 0.29 0.32 0.35
0.43 0.41 0.39 0.43 0.44 0.44 0.41 0.36 0.42 0.41 0.32 0.29 0.30 0.29 0.37 0.42 0.40 0.41 0.30 0.31 0.32 0.30 0.34 0.29 0.25 0.19 0.21 0.16 0.16 0.18 0.19 0.23 0.21 0.22 0.22 0.23 0.24 0.26 0.28 0.29 0.30 0.35 0.35 0.36
0.43 0.42 0.40 0.40 0.41 0.42 0.41 0.36 0.43 0.38 0.32 0.22 0.25 0.37 0.32 0.38 0.43 0.40 0.38 0.35 0.38 0.38 0.39 0.31 0.25 0.20 0.26 0.20 0.20 0.19 0.21 0.23 0.22 0.20 0.25 0.27 0.30 0.30 0.32 0.32 0.34 0.33 0.36 0.38
0.43 0.42 0.42 0.41 0.41 0.40 0.39 0.39 0.40 0.40 0.29 0.24 0.27 0.35 0.35 0.39 0.37 0.35 0.36 0.38 0.33 0.32 0.30 0.27 0.23 0.25 0.26 0.26 0.23 0.19 0.25 0.24 0.23 0.22 0.28 0.29 0.29 0.34 0.34 0.33 0.36 0.41 0.40 0.37
0.43 0.42 0.42 0.43 0.43 0.43 0.40 0.30 0.39 0.45 0.40 0.29 0.22 0.38 0.34 0.36 0.37 0.36 0.34 0.35 0.36 0.33 0.30 0.26 0.26 0.29 0.26 0.21 0.16 0.20 0.24 0.26 0.28 0.26 0.29 0.34 0.37 0.37 0.38 0.37 0.39 0.38 0.38 0.39
0.44 0.43 0.45 0.46 0.45 0.43 0.35 0.31 0.44 0.48 0.48 0.30 0.23 0.27 0.38 0.38 0.39 0.38 0.36 0.35 0.34 0.33 0.29 0.26 0.25 0.25 0.30 0.24 0.17 0.18 0.24 0.26 0.28 0.32 0.43 0.38 0.37 0.31 0.32 0.33 0.36 0.36 0.37 0.38
0.47 0.46 0.48 0.48 0.47 0.48 0.40 0.45 0.48 0.47 0.38 0.33 0.23 0.25 0.29 0.40 0.32 0.28 0.36 0.32 0.33 0.31 0.28 0.27 0.23 0.26 0.26 0.19 0.20 0.23 0.27 0.37 0.38 0.36 0.32 0.29 0.28 0.28 0.31 0.33 0.34 0.34 0.36 0.38
0.49 0.49 0.48 0.44 0.39 0.34 0.36 0.47 0.46 0.45 0.36 0.26 0.26 0.23 0.26 0.40 0.37 0.36 0.32 0.33 0.24 0.29 0.25 0.24 0.26 0.22 0.19 0.20 0.24 0.27 0.34 0.34 0.32 0.26 0.27 0.27 0.26 0.28 0.31 0.34 0.36 0.36 0.37 0.38
0.46 0.43 0.33 0.26 0.32 0.42 0.41 0.37 0.32 0.33 0.34 0.33 0.26 0.31 0.25 0.34 0.33 0.31 0.31 0.34 0.27 0.24 0.27 0.32 0.25 0.21 0.26 0.27 0.29 0.33 0.38 0.35 0.30 0.25 0.23 0.25 0.25 0.27 0.30 0.33 0.37 0.38 0.38 0.40
0.37 0.32 0.32 0.41 0.44 0.37 0.32 0.24 0.24 0.26 0.24 0.28 0.29 0.27 0.24 0.33 0.28 0.28 0.36 0.30 0.29 0.22 0.24 0.26 0.25 0.22 0.27 0.33 0.35 0.39 0.38 0.32 0.32 0.32 0.31 0.30 0.29 0.30 0.30 0.33 0.38 0.39 0.39 0.42
0.38 0.39 0.43 0.40 0.33 0.29 0.24 0.23 0.25 0.24 0.22 0.26 0.26 0.28 0.28 0.32 0.34 0.27 0.28 0.23 0.23 0.18 0.29 0.27 0.20 0.24 0.31 0.38 0.38 0.36 0.34 0.32 0.32 0.31 0.30 0.30 0.30 0.35 0.35 0.37 0.39 0.40 0.44 0.47
0.43 0.34 0.30 0.28 0.27 0.22 0.19 0.18 0.21 0.24 0.26 0.32 0.32 0.29 0.30 0.34 0.33 0.27 0.26 0.23 0.20 0.25 0.24 0.21 0.22 0.30 0.35 0.36 0.37 0.37 0.36 0.36 0.32 0.30 0.31 0.30 0.32 0.35 0.36 0.37 0.42 0.43 0.46 0.48
0.29 0.26 0.21 0.22 0.21 0.22 0.22 0.23 0.24 0.30 0.33 0.33 0.34 0.31 0.29 0.31 0.27 0.27 0.23 0.24 0.25 0.20 0.18 0.19 0.29 0.36 0.40 0.44 0.43 0.39 0.38 0.35 0.32 0.31 0.30 0.28 0.28 0.32 0.36 0.40 0.43 0.44 0.45 0.48
0.28 0.27 0.22 0.23 0.26 0.27 0.27 0.30 0.34 0.38 0.42 0.39 0.35 0.35 0.33 0.31 0.28 0.28 0.25 0.22 0.19 0.20 0.19 0.28 0.37 0.40 0.39 0.38 0.39 0.39 0.38 0.35 0.32 0.33 0.31 0.29 0.27 0.32 0.33 0.39 0.43 0.46 0.47 0.47
0.32 0.28 0.24 0.25 0.24 0.25 0.28 0.29 0.31 0.38 0.37 0.39 0.38 0.31 0.28 0.28 0.28 0.23 0.21 0.19 0.17 0.21 0.32 0.38 0.38 0.36 0.35 0.35 0.36 0.37 0.38 0.37 0.36 0.35 0.31 0.30 0.28 0.31 0.33 0.37 0.42 0.45 0.47 0.46
0.26 0.24 0.28 0.28 0.28 0.28 0.28 0.26 0.27 0.35 0.33 0.27 0.27 0.23 0.22 0.25 0.20 0.18 0.20 0.20 0.27 0.32 0.35 0.38 0.37 0.35 0.34 0.35 0.35 0.35 0.35 0.35 0.38 0.35 0.29 0.30 0.33 0.35 0.34 0.32 0.37 0.44 0.46 0.48

GFSNW_prec_pwat_243.txt.gz
Precipitable_Water
0.43 0.40 0.40 0.40 0.39 0.38 0.33 0.36 0.25 0.48 0.31 0.26 0.27 0.16 0.24 0.22 0.18 0.21 0.20 0.20 0.19 0.18 0.17 0.19 0.17 0.16 0.19 0.26 0.24 0.17 0.21 0.24 0.22 0.29 0.34 0.35 0.36 0.33 0.34 0.27 0.25 0.29 0.32 0.33
0.43 0.41 0.39 0.39 0.39 0.39 0.40 0.30 0.33 0.49 0.33 0.20 0.21 0.22 0.19 0.21 0.16 0.19 0.20 0.18 0.20 0.20 0.20 0.18 0.17 0.17 0.23 0.28 0.22 0.20 0.26 0.20 0.17 0.21 0.25 0.26 0.22 0.27 0.33 0.34 0.31 0.27 0.24 0.32
0.44 0.43 0.40 0.39 0.39 0.39 0.36 0.35 0.19 0.31 0.29 0.34 0.28 0.26 0.24 0.21 0.23 0.21 0.21 0.20 0.22 0.21 0.20 0.22 0.18 0.19 0.24 0.26 0.23 0.27 0.28 0.23 0.19 0.16 0.19 0.23 0.18 0.17 0.23 0.25 0.21 0.20 0.24 0.27
0.47 0.44 0.42 0.39 0.39 0.39 0.36 0.32 0.21 0.24 0.16 0.17 0.25 0.27 0.25 0.21 0.20 0.25 0.25 0.20 0.21 0.21 0.19 0.21 0.19 0.20 0.20 0.21 0.22 0.21 0.22 0.16 0.19 0.18 0.18 0.18 0.18 0.17 0.17 0.18 0.20 0.18 0.19 0.21
0.48 0.46 0.44 0.41 0.40 0.39 0.31 0.23 0.20 0.30 0.24 0.31 0.28 0.26 0.23 0.22 0.21 0.24 0.22 0.22 0.22 0.22 0.20 0.20 0.17 0.19 0.19 0.16 0.17 0.18 0.20 0.14 0.16 0.12 0.16 0.19 0.15 0.16 0.17 0.16 0.15 0.16 0.17 0.16
0.49 0.47 0.45 0.43 0.42 0.38 0.26 0.36 0.37 0.29 0.29 0.26 0.25 0.24 0.26 0.26 0.28 0.25 0.26 0.23 0.22 0.20 0.22 0.25 0.25 0.24 0.22 0.21 0.18 0.16 0.17 0.16 0.14 0.10 0.15 0.14 0.08 0.16 0.20 0.20 0.20 0.18 0.15 0.19
0.49 0.50 0.46 0.44 0.44 0.39 0.39 0.35 0.36 0.27 0.18 0.22 0.24 0.26 0.28 0.27 0.27 0.24 0.26 0.27 0.23 0.25 0.29 0.28 0.25 0.21 0.20 0.21 0.19 0.21 0.15 0.15 0.15 0.12 0.15 0.07 0.18 0.22 0.20 0.20 0.23 0.26 0.24 0.29
0.49 0.51 0.48 0.45 0.45 0.44 0.42 0.44 0.35 0.31 0.22 0.26 0.25 0.28 0.28 0.29 0.29 0.27 0.26 0.28 0.33 0.34 0.29 0.19 0.16 0.15 0.19 0.18 0.19 0.19 0.20 0.18 0.15 0.14 0.14 0.14 0.15 0.23 0.22 0.22 0.22 0.27 0.26 0.28
0.47 0.50 0.51 0.46 0.44 0.46 0.43 0.43 0.45 0.37 0.24 0.20 0.27 0.26 0.28 0.26 0.26 0.27 0.31 0.37 0.37 0.33 0.25 0.20 0.14 0.12 0.14 0.15 0.16 0.21 0.21 0.22 0.18 0.16 0.11 0.10 0.17 0.28 0.30 0.29 0.19 0.27 0.26 0.27
0.46 0.49 0.50 0.51 0.46 0.46 0.43 0.40 0.47 0.36 0.25 0.27 0.29 0.25 0.26 0.31 0.30 0.28 0.31 0.32 0.31 0.34 0.23 0.18 0.16 0.15 0.20 0.14 0.13 0.14 0.17 0.19 0.16 0.16 0.15 0.16 0.20 0.28 0.28 0.19 0.21 0.27 0.28 0.28
0.47 0.47 0.50 0.51 0.50 0.47 0.44 0.40 0.48 0.38 0.30 0.29 0.32 0.33 0.29 0.30 0.30 0.26 0.31 0.30 0.29 0.28 0.21 0.20 0.19 0.18 0.19 0.19 0.18 0.17 0.17 0.16 0.16 0.17 0.15 0.12 0.27 0.26 0.23 0.26 0.29 0.28 0.28 0.32
0.48 0.47 0.50 0.50 0.49 0.49 0.47 0.36 0.47 0.51 0.37 0.33 0.40 0.38 0.39 0.36 0.35 0.33 0.34 0.32 0.32 0.31 0.25 0.25 0.25 0.21 0.21 0.19 0.14 0.18 0.14 0.19 0.18 0.20 0.18 0.25 0.26 0.25 0.27 0.27 0.26 0.26 0.30 0.31
0.47 0.47 0.49 0.48 0.48 0.49 0.46 0.38 0.43 0.46 0.35 0.31 0.29 0.25 0.32 0.38 0.37 0.42 0.30 0.34 0.37 0.33 0.38 0.32 0.27 0.19 0.20 0.15 0.15 0.16 0.18 0.22 0.19 0.19 0.20 0.22 0.25 0.28 0.31 0.32 0.31 0.31 0.32 0.33
0.46 0.46 0.47 0.48 0.48 0.47 0.47 0.37 0.43 0.41 0.32 0.20 0.21 0.35 0.32 0.38 0.39 0.39 0.39 0.37 0.41 0.39 0.36 0.31 0.27 0.22 0.25 0.19 0.20 0.18 0.20 0.21 0.18 0.18 0.22 0.26 0.28 0.32 0.34 0.35 0.36 0.38 0.39 0.40
0.47 0.46 0.46 0.44 0.46 0.47 0.46 0.42 0.44 0.46 0.29 0.22 0.25 0.31 0.31 0.34 0.34 0.38 0.41 0.37 0.34 0.30 0.28 0.28 0.25 0.28 0.25 0.23 0.23 0.17 0.21 0.19 0.19 0.17 0.25 0.28 0.32 0.37 0.37 0.38 0.38 0.37 0.36 0.35
0.49 0.47 0.46 0.44 0.43 0.44 0.39 0.29 0.40 0.44 0.40 0.25 0.17 0.32 0.29 0.34 0.35 0.34 0.34 0.36 0.36 0.34 0.30 0.27 0.27 0.30 0.26 0.20 0.17 0.18 0.22 0.26 0.27 0.24 0.28 0.33 0.35 0.40 0.39 0.34 0.32 0.32 0.31 0.33
0.51 0.48 0.47 0.45 0.43 0.40 0.33 0.28 0.40 0.40 0.42 0.28 0.21 0.22 0.33 0.33 0.36 0.37 0.37 0.38 0.36 0.35 0.33 0.29 0.26 0.25 0.30 0.25 0.17 0.18 0.22 0.24 0.26 0.32 0.37 0.36 0.35 0.28 0.31 0.30 0.29 0.31 0.32 0.35
0.51 0.49 0.47 0.44 0.45 0.46 0.38 0.47 0.51 0.48 0.39 0.32 0.19 0.20 0.26 0.39 0.31 0.30 0.36 0.32 0.33 0.33 0.29 0.29 0.24 0.26 0.25 0.17 0.17 0.20 0.25 0.29 0.33 0.40 0.37 0.30 0.27 0.27 0.27 0.29 0.30 0.30 0.31 0.34
0.51 0.50 0.49 0.47 0.43 0.36 0.40 0.49 0.51 0.48 0.37 0.22 0.20 0.17 0.20 0.38 0.35 0.36 0.34 0.34 0.24 0.30 0.25 0.24 0.25 0.22 0.17 0.18 0.20 0.22 0.29 0.36 0.38 0.37 0.28 0.26 0.24 0.25 0.26 0.27 0.29 0.29 0.31 0.34
0.52 0.49 0.39 0.31 0.40 0.50 0.50 0.42 0.35 0.33 0.31 0.27 0.19 0.25 0.23 0.36 0.35 0.33 0.30 0.33 0.27 0.24 0.27 0.31 0.24 0.21 0.25 0.26 0.26 0.28 0.36 0.39 0.44 0.27 0.21 0.21 0.21 0.24 0.25 0.29 0.32 0.34 0.36 0.36
0.44 0.36 0.33 0.39 0.49 0.39 0.33 0.24 0.24 0.24 0.21 0.23 0.22 0.22 0.22 0.38 0.31 0.31 0.37 0.32 0.31 0.23 0.25 0.25 0.24 0.22 0.25 0.31 0.31 0.34 0.38 0.42 0.37 0.29 0.28 0.28 0.26 0.26 0.27 0.29 0.33 0.36 0.38 0.38
0.39 0.40 0.43 0.40 0.32 0.28 0.24 0.23 0.23 0.22 0.17 0.22 0.21 0.24 0.26 0.30 0.38 0.32 0.31 0.26 0.25 0.18 0.31 0.26 0.21 0.24 0.32 0.35 0.38 0.44 0.45 0.39 0.32 0.30 0.30 0.30 0.29 0.28 0.28 0.31 0.33 0.37 0.40 0.44
0.39 0.33 0.30 0.28 0.27 0.22 0.19 0.18 0.20 0.18 0.21 0.23 0.26 0.27 0.28 0.31 0.36 0.29 0.26 0.23 0.21 0.27 0.23 0.20 0.22 0.32 0.37 0.40 0.40 0.40 0.44 0.40 0.34 0.31 0.31 0.30 0.29 0.27 0.26 0.30 0.33 0.37 0.40 0.45
0.28 0.25 0.21 0.23 0.21 0.21 0.22 0.20 0.20 0.24 0.27 0.29 0.32 0.30 0.29 0.33 0.29 0.27 0.22 0.24 0.25 0.20 0.18 0.19 0.32 0.37 0.41 0.45 0.45 0.45 0.43 0.40 0.35 0.34 0.33 0.32 0.31 0.27 0.28 0.31 0.35 0.35 0.38 0.44
0.26 0.26 0.20 0.21 0.27 0.26 0.26 0.28 0.28 0.33 0.39 0.37 0.34 0.33 0.32 0.28 0.25 0.26 0.24 0.22 0.19 0.21 0.21 0.31 0.38 0.43 0.42 0.41 0.43 0.42 0.39 0.38 0.37 0.38 0.36 0.34 0.32 0.28 0.28 0.32 0.35 0.37 0.39 0.43
0.28 0.26 0.25 0.27 0.25 0.26 0.27 0.27 0.30 0.39 0.41 0.43 0.39 0.32 0.27 0.26 0.27 0.24 0.22 0.21 0.19 0.26 0.32 0.37 0.38 0.37 0.36 0.36 0.37 0.36 0.37 0.37 0.38 0.38 0.37 0.33 0.30 0.29 0.31 0.33 0.35 0.37 0.37 0.40
0.27 0.25 0.30 0.29 0.27 0.26 0.28 0.28 0.30 0.38 0.36 0.31 0.32 0.25 0.23 0.28 0.24 0.23 0.26 0.24 0.28 0.33 0.36 0.38 0.38 0.36 0.34 0.33 0.33 0.32 0.31 0.32 0.31 0.30 0.29 0.29 0.30 0.30 0.32 0.33 0.34 0.35 0.37 0.38

GFSNW_prec_pwat_249.txt.gz
Precipitable_Water
0.52 0.51 0.46 0.46 0.44 0.42 0.35 0.26 0.18 0.47 0.44 0.19 0.22 0.17 0.20 0.22 0.20 0.20 0.18 0.18 0.17 0.16 0.15 0.15 0.16 0.14 0.18 0.24 0.22 0.15 0.19 0.22 0.18 0.21 0.28 0.26 0.25 0.24 0.28 0.24 0.22 0.24 0.25 0.25
0.52 0.53 0.48 0.47 0.45 0.41 0.29 0.25 0.28 0.47 0.38 0.13 0.15 0.20 0.21 0.22 0.18 0.18 0.17 0.17 0.19 0.19 0.16 0.14 0.17 0.18 0.24 0.23 0.19 0.16 0.18 0.14 0.10 0.11 0.18 0.20 0.16 0.21 0.24 0.28 0.28 0.22 0.19 0.23
0.51 0.54 0.51 0.48 0.47 0.44 0.36 0.30 0.19 0.30 0.31 0.24 0.19 0.18 0.17 0.17 0.21 0.17 0.19 0.18 0.20 0.18 0.17 0.20 0.17 0.18 0.21 0.22 0.20 0.19 0.19 0.16 0.13 0.09 0.11 0.15 0.14 0.15 0.18 0.19 0.18 0.18 0.21 0.21
0.51 0.53 0.53 0.50 0.48 0.47 0.37 0.31 0.20 0.27 0.18 0.19 0.20 0.23 0.23 0.20 0.17 0.22 0.22 0.19 0.19 0.18 0.15 0.17 0.16 0.18 0.18 0.20 0.21 0.19 0.18 0.11 0.14 0.14 0.13 0.14 0.14 0.15 0.15 0.16 0.18 0.15 0.21 0.22
0.50 0.51 0.52 0.52 0.50 0.50 0.34 0.27 0.20 0.24 0.18 0.19 0.18 0.23 0.20 0.20 0.21 0.22 0.19 0.18 0.21 0.21 0.17 0.17 0.15 0.18 0.17 0.15 0.19 0.17 0.18 0.12 0.14 0.10 0.11 0.13 0.14 0.17 0.18 0.19 0.20 0.22 0.23 0.23
0.51 0.50 0.51 0.55 0.52 0.50 0.30 0.35 0.34 0.24 0.20 0.18 0.15 0.16 0.19 0.21 0.25 0.26 0.25 0.24 0.22 0.20 0.21 0.24 0.24 0.23 0.22 0.21 0.17 0.16 0.15 0.14 0.12 0.08 0.13 0.13 0.13 0.18 0.19 0.19 0.22 0.22 0.18 0.26
0.52 0.51 0.51 0.56 0.54 0.50 0.33 0.33 0.32 0.22 0.15 0.18 0.17 0.20 0.21 0.21 0.25 0.23 0.26 0.26 0.23 0.25 0.30 0.29 0.28 0.24 0.20 0.20 0.19 0.20 0.15 0.15 0.14 0.10 0.11 0.07 0.15 0.23 0.25 0.20 0.20 0.22 0.24 0.27
0.52 0.51 0.50 0.58 0.55 0.53 0.40 0.44 0.32 0.24 0.14 0.19 0.20 0.21 0.22 0.25 0.27 0.28 0.28 0.28 0.29 0.32 0.28 0.22 0.16 0.14 0.17 0.16 0.19 0.19 0.20 0.17 0.13 0.10 0.10 0.12 0.20 0.23 0.22 0.21 0.20 0.25 0.23 0.24
0.53 0.50 0.50 0.57 0.56 0.55 0.47 0.45 0.45 0.31 0.19 0.16 0.21 0.22 0.24 0.21 0.22 0.25 0.27 0.34 0.36 0.33 0.27 0.21 0.13 0.10 0.14 0.14 0.16 0.22 0.20 0.20 0.15 0.14 0.10 0.07 0.16 0.21 0.23 0.23 0.14 0.25 0.25 0.25
0.53 0.50 0.49 0.55 0.57 0.56 0.53 0.43 0.49 0.36 0.22 0.24 0.26 0.20 0.20 0.25 0.25 0.23 0.28 0.29 0.30 0.33 0.24 0.19 0.15 0.13 0.19 0.14 0.13 0.14 0.15 0.16 0.13 0.13 0.13 0.13 0.20 0.22 0.24 0.14 0.15 0.24 0.25 0.27
0.53 0.51 0.49 0.53 0.58 0.56 0.55 0.43 0.49 0.38 0.27 0.27 0.30 0.29 0.25 0.25 0.26 0.21 0.27 0.27 0.29 0.28 0.21 0.18 0.17 0.17 0.19 0.18 0.19 0.16 0.15 0.14 0.14 0.15 0.13 0.09 0.24 0.22 0.17 0.20 0.25 0.26 0.29 0.29
0.53 0.52 0.50 0.52 0.59 0.56 0.56 0.41 0.49 0.52 0.34 0.30 0.38 0.35 0.36 0.34 0.33 0.29 0.30 0.26 0.25 0.27 0.22 0.22 0.22 0.20 0.22 0.20 0.14 0.22 0.14 0.17 0.14 0.15 0.14 0.22 0.25 0.23 0.24 0.27 0.27 0.29 0.30 0.33
0.54 0.54 0.52 0.52 0.59 0.58 0.53 0.44 0.47 0.47 0.36 0.31 0.29 0.26 0.34 0.42 0.40 0.41 0.27 0.31 0.34 0.31 0.32 0.26 0.25 0.19 0.23 0.16 0.17 0.18 0.19 0.21 0.17 0.16 0.18 0.19 0.19 0.21 0.26 0.29 0.31 0.33 0.34 0.35
0.52 0.54 0.53 0.54 0.59 0.60 0.52 0.45 0.49 0.42 0.35 0.22 0.22 0.34 0.30 0.37 0.38 0.38 0.39 0.35 0.38 0.38 0.36 0.29 0.26 0.22 0.27 0.20 0.20 0.18 0.19 0.20 0.17 0.16 0.17 0.18 0.23 0.26 0.28 0.32 0.35 0.32 0.32 0.31
0.54 0.54 0.55 0.55 0.59 0.62 0.54 0.50 0.51 0.46 0.31 0.22 0.22 0.28 0.31 0.33 0.35 0.33 0.35 0.34 0.33 0.31 0.29 0.29 0.26 0.30 0.28 0.27 0.25 0.18 0.21 0.17 0.16 0.14 0.20 0.21 0.22 0.25 0.33 0.32 0.27 0.28 0.27 0.26
0.56 0.55 0.55 0.56 0.60 0.61 0.52 0.39 0.47 0.49 0.42 0.27 0.18 0.27 0.27 0.31 0.32 0.31 0.31 0.32 0.32 0.31 0.29 0.29 0.31 0.34 0.27 0.20 0.18 0.19 0.21 0.22 0.23 0.19 0.24 0.24 0.26 0.29 0.33 0.28 0.28 0.27 0.25 0.27
0.57 0.56 0.55 0.59 0.62 0.57 0.42 0.34 0.40 0.48 0.43 0.28 0.18 0.17 0.28 0.32 0.31 0.32 0.32 0.37 0.34 0.32 0.31 0.28 0.28 0.28 0.28 0.23 0.16 0.19 0.21 0.23 0.25 0.27 0.27 0.26 0.32 0.29 0.30 0.26 0.25 0.26 0.29 0.31
0.57 0.58 0.58 0.62 0.60 0.57 0.45 0.47 0.46 0.47 0.37 0.30 0.18 0.20 0.25 0.34 0.27 0.26 0.35 0.31 0.33 0.34 0.31 0.32 0.28 0.29 0.28 0.20 0.19 0.21 0.23 0.23 0.23 0.23 0.31 0.34 0.35 0.28 0.24 0.24 0.25 0.25 0.26 0.28
0.58 0.58 0.60 0.56 0.51 0.42 0.45 0.52 0.47 0.46 0.34 0.21 0.21 0.17 0.18 0.33 0.29 0.30 0.30 0.31 0.25 0.33 0.28 0.28 0.27 0.24 0.19 0.19 0.21 0.22 0.23 0.24 0.28 0.34 0.36 0.35 0.26 0.22 0.24 0.23 0.23 0.22 0.23 0.26
0.58 0.53 0.43 0.35 0.45 0.56 0.50 0.44 0.34 0.34 0.33 0.30 0.20 0.25 0.22 0.28 0.27 0.26 0.26 0.29 0.23 0.20 0.24 0.30 0.24 0.22 0.23 0.24 0.25 0.26 0.27 0.30 0.34 0.33 0.33 0.31 0.23 0.25 0.24 0.24 0.25 0.26 0.26 0.26
0.46 0.38 0.34 0.46 0.55 0.42 0.35 0.28 0.26 0.27 0.22 0.25 0.23 0.23 0.26 0.34 0.23 0.23 0.28 0.24 0.25 0.19 0.24 0.23 0.23 0.21 0.25 0.32 0.33 0.33 0.29 0.32 0.38 0.39 0.39 0.36 0.29 0.27 0.26 0.25 0.27 0.29 0.28 0.27
0.42 0.42 0.48 0.45 0.37 0.32 0.24 0.22 0.24 0.21 0.17 0.22 0.20 0.20 0.28 0.33 0.35 0.28 0.28 0.24 0.27 0.20 0.32 0.25 0.21 0.25 0.32 0.35 0.35 0.34 0.33 0.34 0.40 0.42 0.41 0.33 0.31 0.32 0.30 0.28 0.30 0.32 0.31 0.30
0.43 0.37 0.34 0.30 0.29 0.20 0.18 0.16 0.18 0.18 0.20 0.22 0.21 0.19 0.25 0.31 0.33 0.28 0.27 0.23 0.22 0.29 0.24 0.22 0.24 0.32 0.36 0.36 0.37 0.37 0.39 0.41 0.42 0.39 0.36 0.36 0.35 0.35 0.32 0.31 0.33 0.33 0.31 0.31
0.30 0.27 0.22 0.21 0.19 0.20 0.19 0.18 0.17 0.20 0.21 0.22 0.22 0.21 0.23 0.28 0.25 0.26 0.22 0.24 0.27 0.21 0.19 0.19 0.28 0.34 0.38 0.42 0.43 0.42 0.44 0.46 0.43 0.41 0.42 0.38 0.36 0.34 0.33 0.31 0.31 0.31 0.30 0.31
0.26 0.24 0.18 0.20 0.23 0.23 0.23 0.23 0.24 0.26 0.27 0.25 0.25 0.27 0.26 0.26 0.24 0.25 0.23 0.21 0.18 0.20 0.19 0.27 0.34 0.39 0.41 0.42 0.43 0.43 0.44 0.44 0.44 0.41 0.37 0.35 0.32 0.29 0.27 0.26 0.28 0.30 0.30 0.31
0.28 0.25 0.22 0.24 0.23 0.22 0.24 0.24 0.27 0.31 0.30 0.31 0.31 0.27 0.24 0.23 0.24 0.22 0.19 0.20 0.18 0.21 0.27 0.34 0.37 0.40 0.43 0.43 0.43 0.42 0.42 0.37 0.33 0.31 0.29 0.27 0.25 0.23 0.21 0.23 0.21 0.22 0.28 0.29
0.25 0.23 0.27 0.26 0.25 0.24 0.27 0.28 0.32 0.38 0.30 0.26 0.30 0.23 0.21 0.27 0.22 0.21 0.24 0.21 0.25 0.29 0.33 0.38 0.41 0.41 0.41 0.41 0.38 0.36 0.35 0.33 0.31 0.28 0.26 0.25 0.25 0.24 0.23 0.22 0.25 0.27 0.27 0.30